[[{"header":{"parameterUnit":"m.s-1","parameterCategory":1,"la1":30.2991,"la2":30.254,"lo1":-89.0895,"lo2":-89.0444,"dy":0.0017,"dx":0.0017,"nx":28,"ny":28,"refTime":"2023-08-13T03:00:00:Z","depth":0,"parameterNumber":2,"parameterNumberName":"U-component_of_WINDS"},"data":[0,0,0,0,0,0,0,0,0,0,0,0,0,0,0,0,0,0,0,0,0,0,0,0,0,0,0,0,0,0,0,0,0,0,0,0,0,0,0,0,0,0,0,0,0,0,0,0,0,0,0,0,0,0,0,0,0,0,4.1188,4.1189,0,4.1303,4.1304,4.1305,4.1268,4.1266,4.1263,4.1261,4.1377,4.1382,4.1388,0,0,0,0,0,0,0,0,0,0,0,0,0,4.0933,4.0938,4.1188,4.1189,4.1191,4.1302,4.1304,4.1305,4.1269,4.1266,4.1263,4.126,4.1375,4.1382,4.1388,0,0,0,0,0,0,0,0,0,0,0,0,0,4.1045,4.0939,4.1187,4.1186,4.1187,4.1302,4.1304,4.1306,4.1269,4.1265,4.1262,4.1258,4.1373,4.1381,4.1389,4.1513,0,0,4.1414,4.1417,0,0,0,0,0,0,0,0,4.1039,4.1055,4.1184,4.1186,4.1187,4.1267,4.1257,4.1375,4.127,4.1238,4.1261,4.1257,4.1344,4.1354,4.1383,4.1518,4.1523,4.1415,4.1419,4.1423,4.1425,0,0,0,0,0,0,0,4.1031,4.1049,4.1233,4.1186,4.1188,4.1178,4.119,4.1279,4.131,4.124,4.1238,4.1252,4.1344,4.1376,4.1386,4.1525,4.1414,4.1421,4.1426,4.143,4.1762,4.1766,0,0,0,0,0,0,4.1023,4.1043,4.1229,4.1236,4.1103,4.1185,4.1199,4.1245,4.1309,4.1315,4.1255,4.125,4.1364,4.1376,4.139,4.1535,4.1423,4.143,4.1435,4.1758,4.1763,4.1767,0,0,0,0,0,0,4.1018,4.104,4.1225,4.1139,4.1162,4.1194,4.1246,4.125,4.1281,4.132,4.1325,4.1282,4.1361,4.1378,4.1481,4.1539,4.1434,4.1441,4.1754,4.176,4.1765,4.1829,0,0,0,0,0,0,4.101,4.1038,4.1086,4.1141,4.1167,4.1316,4.125,4.1254,4.1296,4.129,4.1347,4.1353,4.136,4.147,4.149,4.1548,4.1448,4.1748,4.1756,4.1763,4.1822,4.1836,4.1849,0,0,0,0,0,4.1001,4.1101,4.1089,4.1112,4.1228,4.1319,4.1334,4.134,4.1301,4.1348,4.1372,4.1351,4.153,4.1481,4.1503,4.1564,4.1745,4.1754,4.1763,4.1815,4.1833,4.1848,0,0,0,0,0,0,4.1052,4.1108,4.1096,4.1215,4.1263,4.1313,4.1373,4.1359,4.1419,4.1411,4.1416,4.1429,4.1534,4.156,4.1504,4.1685,4.1631,4.1645,4.1664,4.1681,4.1694,4.1684,4.1454,0,0,0,0,0,4.1078,4.1148,4.1192,4.1294,4.1318,4.1342,4.1382,4.1382,4.1431,4.1451,4.1483,4.1531,4.1597,4.1641,4.1705,4.1826,4.1836,4.1879,4.1893,4.1903,4.1914,4.1976,4.1994,4.1797,4.1797,4.1797,0,0,4.113,4.1169,4.1213,4.1305,4.1341,4.1412,4.1359,4.1437,4.1489,4.1463,4.1561,4.1586,4.164,4.1751,4.1802,4.1776,4.1971,4.1915,4.1923,4.1928,4.1987,4.2006,4.2022,4.1803,4.1802,4.1801,0,0,4.1261,4.13,4.1386,4.1424,4.148,4.1495,4.1515,4.1567,4.1582,4.1681,4.1662,4.1724,4.184,4.1877,4.1911,4.2054,4.2035,4.2075,4.2144,4.2205,4.222,4.2234,4.2281,4.2298,4.2087,4.2087,4.2087,0,4.1319,4.1426,4.1432,4.1511,4.155,4.153,4.1616,4.1652,4.1726,4.1753,4.1723,4.1865,4.19,4.2018,4.2053,4.2083,4.2104,4.2067,4.2218,4.2231,4.2244,4.2289,4.2307,4.2091,4.2091,4.209,4.209,0,4.1493,4.1567,4.163,4.1701,4.1747,4.183,4.1846,4.1893,4.1889,4.1906,4.2005,4.2046,4.2116,4.2145,4.2143,4.2262,4.2243,4.2216,4.2161,4.2267,4.2309,4.2327,4.2097,4.2095,4.2094,4.2093,0,0,4.1659,4.173,4.1753,4.1783,4.1843,4.1899,4.198,4.2048,4.2085,4.2137,4.2202,4.23,4.2273,4.2312,4.2314,4.2368,4.2473,4.2333,4.2334,4.2354,4.2602,4.2619,4.2639,4.2462,4.2465,4.2468,4.2596,0,4.1791,4.1932,4.1939,4.2066,4.2133,4.2114,4.2183,4.2226,4.2244,4.2302,4.2322,4.2389,4.2352,4.2375,4.2427,4.2449,4.2522,4.2441,4.252,4.2522,4.2503,4.2662,4.2681,4.28,4.2613,4.2616,4.2618,0,4.1966,4.2021,4.2155,4.2201,4.2229,4.2292,4.2352,4.2409,4.2457,4.2466,4.2508,4.2502,4.2581,4.2526,4.2634,4.2578,4.2612,4.2627,4.2632,4.2637,4.2574,4.2667,4.2838,4.2855,4.2644,4.2642,4.264,0,4.2068,4.2176,4.2269,4.2296,4.2354,4.2398,4.2424,4.2468,4.2507,4.256,4.2585,4.2648,4.2681,4.2729,4.2738,4.2698,4.2845,4.2792,4.2852,4.2851,4.2881,4.2879,4.3056,4.2909,4.2909,4.2908,4.2908,0,4.2213,4.2295,4.2315,4.2372,4.2462,4.2468,4.2557,4.258,4.2618,4.2678,4.2666,4.2722,4.2733,4.279,4.2799,4.2884,4.2901,4.2908,4.2909,4.2907,4.2906,4.2926,4.2917,4.2913,4.2912,4.2911,4.291,0,4.2342,4.2359,4.2458,4.2505,4.2518,4.2582,4.262,4.2674,4.269,4.2765,4.2783,4.2809,4.2876,4.289,4.2971,4.2976,4.3076,4.3071,4.306,4.3058,4.3116,4.3109,4.331,4.3335,4.3175,4.3177,4.3178,0,4.2432,4.2493,4.2546,4.2585,4.2612,4.2676,4.2715,4.2724,4.2765,4.2822,4.2868,4.2933,4.2985,4.3093,4.3118,4.3178,4.3171,4.3238,4.318,4.3175,4.3167,4.3162,4.3166,4.3247,4.3249,4.3251,4.3252,0,4.2588,4.2593,4.265,4.2711,4.2758,4.2806,4.2851,4.2883,4.2897,4.2944,4.3012,4.3053,4.3133,4.3197,4.3257,4.3282,4.3268,4.327,4.3286,4.3284,4.3273,4.3275,4.3085,4.3265,4.3263,4.3262,4.3262,4.3261,4.2697,4.275,4.2794,4.2857,4.2892,4.2934,4.2985,4.3007,4.3064,4.313,4.3132,4.3204,4.3248,4.3326,4.3355,4.3411,4.339,4.3415,4.3421,4.3426,4.3429,4.3267,4.3423,4.3422,4.3422,4.3422,4.3422,0,4.2849,4.2876,4.2935,4.2998,4.3047,4.3031,4.3079,4.3121,4.3185,4.3227,4.3278,4.3355,4.3416,4.3445,4.3505,4.3544,4.3539,4.3559,4.3555,4.356,4.3446,4.3424,4.3562,4.3562,4.3562,4.3562,4.3562,4.3562,4.2934,4.302,4.303,4.3133,4.3159,4.323,4.3259,4.3297,4.3329,4.3415,4.3465,4.3484,4.352,4.3582,4.3637,4.3644,4.3664,4.3687,4.369,4.3583,4.3568,4.3555,4.3534,4.3692,4.3693,4.3799,4.38,4.38]},{"header":{"parameterUnit":"m.s-1","parameterCategory":1,"la1":30.2991,"la2":30.254,"lo1":-89.0895,"lo2":-89.0444,"dy":0.0017,"dx":0.0017,"nx":28,"ny":28,"refTime":"2023-08-13T03:00:00:Z","depth":0,"parameterNumber":3,"parameterNumberName":"V-component_of_WINDS"},"data":[0,0,0,0,0,0,0,0,0,0,0,0,0,0,0,0,0,0,0,0,0,0,0,0,0,0,0,0,0,0,0,0,0,0,0,0,0,0,0,0,0,0,0,0,0,0,0,0,0,0,0,0,0,0,0,0,0,0,1.9481,1.9482,0,1.9568,1.9569,1.957,1.9567,1.9565,1.9564,1.9563,1.9651,1.9655,1.9658,0,0,0,0,0,0,0,0,0,0,0,0,0,1.931,1.9314,1.9481,1.9482,1.9483,1.9568,1.9569,1.957,1.9567,1.9565,1.9564,1.9562,1.965,1.9654,1.9659,0,0,0,0,0,0,0,0,0,0,0,0,0,1.939,1.9315,1.9481,1.9492,1.9494,1.9568,1.9569,1.9571,1.9567,1.9565,1.9563,1.9562,1.9649,1.9654,1.9659,1.9728,0,0,1.9675,1.9677,0,0,0,0,0,0,0,0,1.9385,1.9396,1.9489,1.9491,1.9493,1.9555,1.9541,1.9623,1.9568,1.9539,1.9563,1.9561,1.9621,1.9628,1.9648,1.9732,1.9736,1.9676,1.9679,1.9681,1.9682,0,0,0,0,0,0,0,1.938,1.9392,1.9515,1.949,1.9493,1.9492,1.9501,1.9557,1.9589,1.9542,1.9542,1.9552,1.9621,1.9643,1.965,1.9737,1.9675,1.968,1.9683,1.9685,1.9879,1.9881,0,0,0,0,0,0,1.9372,1.9388,1.9513,1.9518,1.9434,1.9496,1.9507,1.9537,1.9588,1.9595,1.9553,1.9551,1.9635,1.9644,1.9653,1.9736,1.9681,1.9686,1.9689,1.9877,1.988,1.9882,0,0,0,0,0,0,1.9368,1.9383,1.9509,1.9453,1.9469,1.9501,1.9535,1.9539,1.9561,1.9597,1.9603,1.957,1.9634,1.9646,1.9709,1.9739,1.9688,1.9693,1.9875,1.9878,1.9881,1.9903,0,0,0,0,0,0,1.9364,1.9382,1.9409,1.9454,1.9472,1.9564,1.9537,1.9542,1.957,1.9569,1.9614,1.962,1.9634,1.9701,1.9714,1.9745,1.9697,1.9872,1.9876,1.988,1.9899,1.9906,1.9912,0,0,0,0,0,1.9357,1.9412,1.9411,1.9426,1.9506,1.9566,1.9576,1.9591,1.9573,1.96,1.9623,1.9619,1.9734,1.9708,1.9722,1.9756,1.987,1.9875,1.9879,1.9897,1.9905,1.9912,0,0,0,0,0,0,1.9371,1.9418,1.9417,1.9488,1.9523,1.9565,1.96,1.9599,1.964,1.9637,1.9653,1.9663,1.9726,1.9747,1.9717,1.9824,1.98,1.9807,1.9808,1.9816,1.9822,1.9815,1.9701,0,0,0,0,0,1.9382,1.9427,1.9465,1.9524,1.9542,1.9568,1.9594,1.9602,1.9639,1.9654,1.9681,1.9717,1.976,1.9789,1.9832,1.9902,1.9911,1.9932,1.9938,1.9943,1.995,1.9987,1.9996,1.9897,1.9897,1.9896,0,0,1.9406,1.9437,1.9464,1.9528,1.9556,1.9601,1.958,1.9629,1.9662,1.9661,1.9722,1.9743,1.9784,1.985,1.9881,1.987,1.9979,1.9949,1.9953,1.9956,1.9992,2.0002,2.001,1.99,1.9899,1.9899,0,0,1.9472,1.95,1.9552,1.958,1.9622,1.9639,1.9651,1.9693,1.9707,1.9768,1.9767,1.9807,1.9882,1.9911,1.9935,2.0009,2.0007,2.0023,2.0055,2.0091,2.0099,2.0106,2.0131,2.0141,2.0029,2.0029,2.0029,0,1.9496,1.9564,1.9578,1.9627,1.9654,1.9654,1.9705,1.9732,1.9786,1.9804,1.9791,1.9885,1.9912,1.9985,2.0002,2.0023,2.0036,2.0018,2.0097,2.0104,2.0111,2.0135,2.0145,2.0031,2.003,2.003,2.003,0,1.9591,1.9638,1.9674,1.9726,1.9757,1.9807,1.9827,1.9857,1.9862,1.9879,1.9941,1.9973,2.0021,2.0039,2.0045,2.0112,2.0103,2.0093,2.007,2.0121,2.0145,2.0154,2.0033,2.0032,2.0032,2.0032,0,0,1.9669,1.9726,1.9739,1.9762,1.9808,1.9844,1.9893,1.994,1.9965,2.0002,2.0042,2.0105,2.0096,2.0123,2.0132,2.0163,2.0218,2.0149,2.015,2.016,2.0293,2.03,2.0311,2.0217,2.0218,2.022,2.0289,0,1.9739,1.9827,1.984,1.9916,1.9959,1.9959,2.0001,2.0033,2.0051,2.0089,2.0108,2.0152,2.0136,2.0153,2.0184,2.0205,2.0245,2.02,2.0254,2.0256,2.0244,2.0323,2.0331,2.0395,2.0298,2.03,2.0301,0,1.9833,1.9872,1.9953,1.9991,2.0009,2.0047,2.009,2.0127,2.0163,2.0173,2.0203,2.0207,2.0256,2.023,2.0298,2.0267,2.029,2.0303,2.0306,2.0311,2.0282,2.033,2.0416,2.0425,2.0316,2.0314,2.0313,0,1.9881,1.9953,2.001,2.003,2.0076,2.0103,2.0123,2.0157,2.0184,2.0221,2.0238,2.0281,2.0304,2.0337,2.0352,2.0331,2.0418,2.0393,2.0427,2.0427,2.0446,2.0445,2.0536,2.0461,2.0461,2.0461,2.046,0,1.9958,2.0007,2.0032,2.0068,2.0122,2.0136,2.0189,2.0209,2.0238,2.0277,2.0279,2.0315,2.0332,2.037,2.0382,2.0436,2.0446,2.0455,2.0458,2.0455,2.0454,2.047,2.0466,2.0463,2.0463,2.0462,2.0462,0,2.0021,2.004,2.0102,2.014,2.0151,2.0189,2.0221,2.0255,2.0271,2.0319,2.0331,2.0357,2.0401,2.0419,2.0474,2.0482,2.0543,2.0543,2.0531,2.0532,2.0565,2.0561,2.067,2.0684,2.06,2.0601,2.0601,0,2.0069,2.0106,2.0148,2.0174,2.0195,2.0236,2.0263,2.0278,2.0305,2.0348,2.0376,2.042,2.0457,2.0528,2.0551,2.0592,2.0592,2.0627,2.0599,2.0594,2.0592,2.059,2.0593,2.0633,2.0634,2.0634,2.0635,0,2.0151,2.0158,2.0197,2.0239,2.0271,2.0305,2.0337,2.0358,2.0377,2.0408,2.0454,2.0482,2.0537,2.0581,2.0623,2.0643,2.0642,2.0644,2.0654,2.0651,2.0643,2.0647,2.0545,2.0641,2.0641,2.064,2.064,2.064,2.0208,2.024,2.0274,2.0317,2.0343,2.0373,2.0406,2.0426,2.0464,2.051,2.0516,2.0564,2.0597,2.0654,2.0676,2.0713,2.0704,2.0719,2.0722,2.0726,2.0727,2.0637,2.0721,2.0721,2.0721,2.0721,2.072,0,2.0289,2.0311,2.035,2.0395,2.0428,2.0424,2.0459,2.0487,2.053,2.0561,2.0596,2.0648,2.0689,2.0715,2.0757,2.0782,2.0782,2.0792,2.0791,2.0795,2.0734,2.0721,2.0791,2.0791,2.0791,2.0791,2.0791,2.0791,2.0336,2.0391,2.0401,2.0469,2.049,2.0537,2.0557,2.0585,2.0609,2.0666,2.0701,2.0717,2.0746,2.0789,2.0827,2.0833,2.0848,2.0859,2.0865,2.0807,2.08,2.0793,2.078,2.0862,2.0862,2.0923,2.0923,2.0924]}]]